SCP
0 0 0 0 0 0 0 0 0 0 1 2 2 2 3 4 5 4 4 3 3 2 2 3 3 2 3 3 3 3 3 4 7 9 8 5 4 3 3 2 2 3 3 3
0 0 0 0 0 0 0 0 0 0 1 2 2 2 3 5 5 4 4 3 3 3 3 3 3 3 2 3 3 4 4 5 8 9 7 5 4 3 3 2 2 3 3 3
0 0 0 0 0 0 1 1 1 1 2 3 3 3 4 5 5 4 4 3 4 4 4 4 4 3 3 3 4 5 5 6 8 8 6 5 4 3 3 3 3 3 3 3
0 0 0 0 0 1 1 1 2 3 3 4 4 5 5 4 4 4 3 3 4 4 5 4 4 4 4 5 6 6 5 6 6 5 5 4 4 3 3 3 3 3 4 4
1 1 1 0 1 1 1 2 3 4 5 6 6 5 4 3 3 4 4 4 4 5 5 5 5 5 5 5 6 6 5 5 5 4 4 4 4 4 4 4 4 4 4 5
1 1 1 1 1 1 1 2 4 6 7 6 5 4 3 3 3 4 5 5 5 5 5 5 6 6 6 6 6 5 5 5 5 5 4 4 4 4 5 4 4 4 4 5
1 1 1 1 1 1 2 3 6 7 6 5 4 3 3 3 4 5 5 5 5 5 5 5 6 8 8 7 6 5 5 5 5 5 5 5 5 5 6 5 5 5 5 5
1 1 1 1 1 1 2 4 7 7 5 3 3 3 3 4 5 5 4 4 5 5 5 5 7 9 11 10 9 8 7 6 7 7 8 7 6 6 6 6 6 6 6 7
1 1 1 1 1 1 2 4 5 5 4 3 3 4 4 5 6 6 5 5 5 6 7 6 8 11 12 12 11 10 9 9 10 10 10 9 8 7 6 6 5 5 6 8
1 1 1 1 2 2 2 3 3 3 3 3 3 3 4 5 6 7 7 6 6 7 8 8 9 11 11 11 10 9 9 10 11 11 11 10 9 8 7 6 5 5 6 7
1 1 2 2 3 3 3 3 3 3 2 2 2 2 3 4 6 7 9 9 8 9 9 9 10 11 11 10 9 8 8 9 10 10 11 12 10 9 8 8 6 6 6 7
2 2 3 3 4 4 4 4 3 3 3 3 2 2 2 3 4 6 8 9 9 9 9 9 10 11 11 11 10 10 9 10 11 11 12 13 12 10 9 8 7 6 6 6
2 2 3 4 4 4 4 4 4 4 5 4 4 3 3 3 3 5 6 6 7 8 8 8 9 11 12 12 13 13 11 11 13 14 14 13 12 9 6 5 6 6 5 5
2 2 3 3 4 4 5 5 5 5 5 5 4 4 4 3 4 4 4 4 4 5 6 6 7 9 11 13 14 14 11 10 11 12 12 11 9 7 4 3 3 4 4 3
3 2 2 2 3 4 5 5 4 4 4 4 4 4 5 6 5 4 3 3 4 4 4 5 6 8 10 11 11 10 9 8 7 7 7 6 5 5 4 3 2 2 2 2
3 3 2 2 2 2 3 4 4 4 3 3 3 3 5 7 6 4 2 4 6 7 6 7 8 10 10 9 8 7 6 6 5 4 4 3 3 4 4 4 2 2 1 1
5 5 4 2 1 1 2 3 4 3 3 3 2 3 4 5 5 4 2 5 9 11 9 9 10 11 10 8 7 6 5 5 4 4 4 3 3 4 5 5 3 2 1 1
6 6 5 4 2 2 2 2 3 3 2 2 2 2 2 3 4 4 3 6 11 13 10 8 8 8 8 7 6 5 5 5 4 4 4 3 3 4 4 5 4 3 2 1
6 6 6 5 4 2 2 3 3 3 3 3 3 3 3 3 3 4 4 6 10 11 9 7 6 7 7 7 7 8 7 6 5 5 4 4 4 4 4 4 4 4 3 2
4 5 6 6 5 3 3 4 5 5 5 4 4 4 4 5 5 5 5 6 7 8 9 8 8 8 8 8 7 8 7 6 6 6 6 4 4 3 3 4 4 4 3 2
3 3 4 5 5 3 4 5 6 6 7 7 6 6 7 8 8 8 7 7 7 7 8 9 9 8 7 6 5 5 5 5 6 6 5 4 3 3 3 4 4 4 2 1
2 2 2 3 3 3 4 5 5 6 8 10 11 11 10 10 9 8 7 7 6 6 7 8 7 6 4 4 3 4 5 6 6 5 4 3 2 2 2 3 3 3 2 1
2 2 2 1 1 2 3 4 4 4 7 10 12 12 11 9 7 6 5 4 4 4 5 5 3 2 2 3 4 5 6 6 5 4 3 2 2 2 2 2 3 3 2 1
1 1 1 1 1 2 3 3 3 2 4 6 7 8 8 7 5 4 3 2 1 2 2 2 1 0 1 3 5 6 6 5 4 3 3 2 2 1 2 2 2 2 2 1
1 1 1 1 1 2 3 2 2 2 2 3 4 4 4 4 3 3 2 1 1 1 1 1 0 1 2 4 5 5 5 4 3 3 2 2 1 1 1 1 2 2 1 1
1 1 1 1 1 1 1 1 1 1 1 2 2 2 2 2 2 2 2 2 2 2 2 1 1 2 3 4 4 4 3 3 2 2 1 1 1 1 1 1 1 2 1 1
1 1 1 1 1 1 1 1 1 1 1 2 2 2 2 2 3 3 3 3 3 3 3 3 3 3 3 4 3 3 2 2 2 1 1 1 1 1 0 1 1 2 2 2
Wind_Speed
9 7 9 11 11 13 15 14 13 10 9 6 3 3 2 3 4 5 5 6 6 6 6 7 7 7 7 7 8 8 9 8 8 8 7 7 7 7 6 6 5 5 4 4
10 10 11 12 13 13 14 14 14 13 10 4 3 4 3 3 4 5 5 5 6 6 6 7 7 7 7 7 7 8 9 9 8 8 8 7 7 7 6 6 5 5 5 5
11 9 11 14 12 12 12 11 12 12 7 4 4 4 4 3 4 4 5 5 5 5 5 6 6 7 7 7 7 8 8 8 8 8 8 8 7 7 6 6 6 5 5 5
9 9 14 5 3 7 9 9 9 9 6 5 5 4 4 4 4 4 4 4 5 5 5 5 6 6 6 7 7 8 8 8 8 8 8 8 7 7 7 6 6 6 6 6
8 12 11 6 4 5 7 8 6 8 6 5 3 5 5 3 2 3 4 4 4 4 4 5 5 6 7 7 7 8 8 8 9 8 8 8 8 7 7 6 6 6 6 6
9 12 11 3 2 3 7 9 3 5 5 5 5 8 3 1 2 3 3 3 3 3 4 4 4 5 7 7 7 7 7 7 7 8 8 8 8 7 6 6 6 5 5 5
11 11 7 2 1 4 9 1 2 3 4 6 5 5 1 1 2 3 4 4 4 4 4 3 4 5 7 7 7 7 7 7 7 7 8 8 7 6 6 6 6 5 5 5
9 11 6 3 3 4 2 3 2 3 3 3 2 2 1 1 1 2 2 3 3 3 3 3 4 5 6 7 6 6 6 7 6 6 6 6 7 6 6 6 6 6 6 6
5 3 3 2 0 1 2 3 3 3 3 3 3 2 1 1 1 1 2 2 2 3 3 3 4 5 6 5 5 6 6 6 6 6 6 6 7 7 7 7 6 6 6 6
5 5 3 2 1 2 3 4 4 4 4 3 3 2 1 1 1 2 2 2 2 3 3 3 4 4 5 4 5 6 6 6 6 6 6 6 5 6 6 6 7 6 6 6
8 5 5 5 3 3 4 4 3 3 3 3 3 2 2 2 1 2 2 2 2 2 2 3 3 3 4 4 5 6 6 6 6 5 5 5 5 4 6 5 5 6 6 5
6 4 5 3 3 4 4 4 4 4 4 4 3 3 3 2 2 2 2 2 2 2 2 2 2 3 3 4 5 5 5 6 5 5 4 5 5 4 0 2 3 4 3 4
6 5 5 4 4 5 6 5 5 5 5 4 4 4 3 2 2 2 2 3 2 2 2 2 2 3 3 4 4 5 5 4 4 5 5 5 5 4 4 2 2 4 4 4
5 5 5 5 5 5 5 5 5 6 5 5 4 4 3 3 3 3 3 3 3 2 2 2 3 3 3 3 4 5 5 5 5 4 4 5 4 4 4 4 4 3 4 6
5 5 5 4 5 5 6 6 6 5 5 5 4 4 4 4 4 4 4 3 3 3 3 3 3 3 3 3 4 5 5 4 4 3 4 4 4 4 4 5 4 3 3 4
4 5 5 5 6 6 6 6 6 5 5 5 5 4 4 4 4 4 3 3 4 4 4 4 4 4 3 4 5 5 4 5 5 4 4 5 5 5 4 4 4 4 4 4
5 5 5 5 5 6 6 5 5 4 4 5 5 4 4 4 4 4 3 4 4 4 4 4 4 3 4 4 5 4 3 4 7 6 5 5 5 5 4 5 5 4 4 4
5 5 5 5 5 6 5 5 5 4 4 4 4 5 4 5 5 4 4 4 3 4 4 4 3 3 4 4 4 4 4 4 5 5 4 5 4 4 4 5 5 5 4 4
4 4 4 4 4 4 5 5 4 4 3 4 4 4 4 4 4 4 4 4 4 5 3 3 2 4 4 4 3 4 4 4 5 4 4 4 5 5 5 5 5 5 4 4
2 2 2 3 3 3 3 3 3 3 3 3 3 4 3 4 4 4 4 4 4 3 3 2 3 3 3 3 3 4 4 4 5 4 4 4 5 4 5 5 5 5 4 4
1 1 1 2 2 2 2 2 2 3 3 3 4 4 4 4 4 4 4 4 3 2 3 3 3 3 3 2 4 4 4 4 4 4 4 4 4 5 5 5 5 4 4 4
1 1 1 1 1 2 2 2 2 2 3 3 3 4 4 4 4 4 4 3 3 1 3 3 2 1 2 4 4 4 4 4 4 4 4 4 4 4 5 5 4 4 4 4
2 1 1 1 1 2 2 2 2 2 2 3 3 3 4 4 4 4 4 2 2 1 3 2 0 0 3 5 4 4 4 4 4 4 4 4 4 4 4 4 4 3 4 4
1 1 1 1 1 1 1 2 2 2 2 2 2 2 3 3 3 3 3 2 2 3 3 1 2 3 5 4 3 3 3 4 4 4 3 3 3 3 3 3 3 3 3 4
2 2 1 1 1 1 1 1 1 1 2 2 2 2 2 2 3 3 3 3 2 3 3 2 5 5 5 3 3 3 2 2 2 2 3 3 3 3 3 3 3 3 3 3
2 2 1 1 1 2 1 1 1 2 2 2 2 2 2 1 2 2 2 2 2 2 2 2 3 4 3 3 2 2 2 2 2 3 2 2 3 3 2 2 3 2 2 2
2 2 1 2 1 1 1 1 1 1 2 2 2 3 3 2 2 2 2 1 1 1 1 1 1 1 2 2 2 2 2 2 1 1 2 2 2 2 1 2 2 2 2 2
Wind_Direction
249 249 239 236 229 228 237 247 256 258 257 247 232 222 211 199 193 186 178 176 178 181 179 183 186 189 191 191 189 187 185 188 184 183 179 178 175 176 176 183 188 183 183 187
234 238 241 244 240 236 237 243 249 254 255 255 229 218 212 212 213 205 199 191 186 186 184 189 190 191 192 193 190 187 189 189 183 183 182 182 180 177 176 182 188 186 188 191
233 225 241 238 235 235 235 238 245 251 258 238 230 218 218 220 229 225 217 209 202 199 195 194 195 195 195 192 189 189 191 189 183 185 187 187 185 180 180 183 186 190 191 193
237 225 237 237 219 236 241 245 252 260 257 238 238 224 228 231 232 230 227 221 213 210 203 202 198 196 199 190 190 192 194 192 187 190 191 188 187 187 186 184 186 190 193 194
234 234 240 219 210 231 241 243 248 254 247 244 234 215 211 208 229 242 240 230 226 223 213 205 199 194 194 193 192 195 198 197 193 194 191 188 189 188 184 183 187 190 189 190
230 240 241 213 148 238 245 238 225 253 240 229 229 237 203 182 267 267 256 239 231 227 220 204 201 198 199 196 192 196 199 200 196 194 194 194 191 188 183 183 186 189 186 191
234 240 242 85 140 205 230 268 15 277 247 233 238 283 336 271 278 279 262 248 235 229 227 217 204 198 203 200 200 199 196 196 195 197 196 195 189 186 183 185 182 188 188 188
230 239 228 105 188 227 337 358 318 296 272 253 257 270 229 221 267 289 274 258 243 235 234 221 208 202 208 208 201 195 195 195 194 196 201 191 188 190 189 187 187 189 188 190
241 254 72 105 342 349 308 294 299 290 280 268 266 260 244 236 300 310 302 284 270 251 246 231 217 211 216 214 200 192 190 193 195 191 195 194 193 195 194 195 202 200 197 197
240 219 208 222 254 276 284 287 289 280 266 259 262 267 280 302 310 317 317 290 264 250 245 237 224 217 217 207 199 195 191 189 189 192 193 189 199 204 204 204 210 208 207 203
240 243 243 225 249 268 279 275 271 267 263 265 261 255 257 266 278 290 296 285 259 249 246 243 224 211 203 196 197 198 192 192 194 198 194 196 204 210 219 216 216 217 216 210
253 241 255 254 280 283 277 268 263 259 263 265 263 264 266 270 267 266 279 283 269 263 254 249 232 213 203 195 194 198 206 201 201 202 197 206 202 202 196 234 180 201 232 239
276 273 278 272 272 276 270 270 265 258 258 263 263 263 266 267 261 255 258 266 267 264 256 241 232 222 211 206 201 205 216 212 215 209 202 208 206 204 201 187 180 194 200 207
259 257 256 255 264 272 268 267 262 256 254 257 262 264 260 261 262 265 264 262 260 259 252 238 226 220 213 209 208 212 220 204 215 214 209 212 212 213 212 208 205 205 193 191
249 254 255 263 266 264 262 256 251 248 248 254 259 259 257 259 260 265 271 266 256 253 246 238 229 227 223 218 217 218 221 217 216 226 220 217 216 214 215 215 217 211 188 166
255 257 254 257 265 268 264 252 245 243 244 247 253 252 256 258 258 259 258 254 248 246 242 241 237 235 230 231 229 224 215 199 209 225 223 217 215 215 213 211 215 216 214 195
244 244 255 263 269 273 268 263 256 252 248 247 251 253 255 251 246 249 255 256 259 255 248 248 246 246 235 231 237 237 232 204 194 216 221 220 218 215 212 212 215 222 225 200
249 257 266 270 275 275 274 267 256 250 249 257 258 254 253 253 253 252 259 267 267 259 255 254 250 248 241 237 240 241 233 229 222 219 220 222 225 220 214 215 216 222 224 191
248 256 269 275 276 275 276 271 264 254 245 247 252 253 254 258 259 257 259 255 256 254 261 262 223 231 236 241 248 233 233 235 233 229 228 217 219 224 220 219 221 224 219 201
264 274 278 281 277 274 278 272 261 251 246 242 247 255 262 265 260 253 255 259 264 271 265 260 244 242 243 233 235 238 227 229 234 232 229 228 225 225 225 224 226 229 223 215
281 273 281 286 290 293 288 281 265 258 255 247 246 255 263 269 266 257 258 265 273 278 266 245 236 244 251 248 225 235 229 229 230 229 228 229 228 228 229 231 230 228 225 227
337 337 325 327 323 324 328 321 303 287 279 265 258 261 262 260 262 264 264 273 275 266 258 255 252 294 294 263 238 231 227 230 233 235 236 237 235 234 233 232 229 227 227 231
345 336 330 336 330 327 332 334 332 320 313 305 285 265 263 272 270 265 265 274 275 275 263 266 358 248 267 245 239 230 229 229 231 233 236 241 238 234 232 234 233 230 229 230
326 325 332 336 316 296 314 346 355 354 348 325 302 285 271 262 261 268 283 284 272 262 265 243 206 230 239 242 245 239 235 235 237 236 237 241 244 240 234 235 237 237 236 241
298 294 289 285 276 304 359 346 352 341 318 322 321 309 278 275 278 286 291 290 283 260 265 226 198 216 236 249 245 244 244 248 256 255 244 246 253 254 252 249 245 243 245 240
272 272 279 285 308 296 290 313 336 335 332 336 338 338 335 322 293 281 275 275 269 252 256 239 212 214 236 253 258 265 267 238 229 237 238 240 245 251 249 246 247 247 240 234
251 248 236 243 240 260 288 305 322 338 346 346 346 344 339 335 328 323 316 307 300 292 290 277 261 259 260 262 266 263 260 256 250 256 255 249 242 244 247 251 252 241 239 230